START_TIME,STEP,MOV.,M29,t_acc.,H22,t_acc.,H26,t_acc.,H30,t_acc.
1986-01-26 18:00:33.170 ,1,0,0.,24.0,0.,24.0,0.,24.0,0.,24.0
1986-01-26 18:00:57.170 ,2,1,0.,24.0,0.,24.0,0.,24.0,0.,24.0
1986-01-26 18:01:21.170 ,2,0,0.,24.0,0.,24.0,0.,24.0,0.,24.0
1986-01-26 18:01:45.170 ,3,1,0.,24.0,0.,24.0,0.,24.0,0.,24.0
1986-01-26 18:02:09.170 ,3,0,0.,24.0,0.,24.0,0.,24.0,0.,24.0
1986-01-26 18:02:33.170 ,4,1,0.,24.0,0.,24.0,0.,24.0,0.,24.0
1986-01-26 18:02:57.170 ,4,0,0.,24.0,0.,24.0,0.,24.0,0.,24.0
1986-01-26 18:03:21.170 ,5,1,0.,24.0,0.,24.0,0.,24.0,0.,24.0
1986-01-26 18:03:45.170 ,5,0,0.,24.0,0.,24.0,0.,24.0,0.,24.0
1986-01-26 18:04:09.170 ,6,1,0.,24.0,0.,24.0,0.,24.0,0.,24.0
1986-01-26 18:04:33.170 ,6,0,0.,24.0,0.,24.0,0.,24.0,0.,24.0
1986-01-26 18:04:57.170 ,7,1,0.,24.0,0.,24.0,0.,24.0,0.,24.0
1986-01-26 18:05:21.170 ,7,0,0.,24.0,0.,24.0,0.,24.0,0.,24.0
1986-01-26 18:05:45.170 ,7,1,0.,24.0,0.,24.0,0.,24.0,0.,24.0
1986-01-26 18:06:09.170 ,7,0,0.,24.0,0.,24.0,0.,24.0,0.,24.0
1986-01-26 18:06:33.170 ,6,1,0.,24.0,0.,24.0,0.,24.0,0.,24.0
1986-01-26 18:06:57.170 ,6,0,0.,24.0,0.,24.0,0.,24.0,0.,24.0
1986-01-26 18:07:21.170 ,5,1,0.,24.0,0.,24.0,0.,24.0,0.,24.0
1986-01-26 18:07:45.170 ,5,0,0.,24.0,0.,24.0,0.,24.0,0.,24.0
1986-01-26 18:08:09.170 ,4,1,0.,24.0,0.,24.0,0.,24.0,0.,24.0
1986-01-26 18:08:33.170 ,4,0,0.,24.0,0.,24.0,0.,24.0,0.,24.0
1986-01-26 18:08:57.170 ,3,1,0.,24.0,0.,24.0,0.,24.0,0.,24.0
1986-01-26 18:09:21.170 ,3,0,0.,24.0,0.,24.0,0.,24.0,0.,24.0
1986-01-26 18:09:45.170 ,2,1,0.,24.0,0.,24.0,0.,24.0,0.,24.0
1986-01-26 18:10:09.170 ,2,0,0.,24.0,0.,24.0,0.,24.0,0.,24.0
1986-01-26 18:10:33.170 ,1,1,0.,24.0,0.,24.0,0.,24.0,0.,24.0
1986-01-26 18:10:57.170 ,1,0,0.,24.0,0.,24.0,0.,24.0,0.,24.0
1986-01-26 18:11:21.170 ,0,1,0.,24.0,0.,24.0,0.,24.0,0.,24.0
1986-01-26 18:11:45.170 ,0,0,0.,24.0,0.,24.0,0.,24.0,0.,24.0
1986-01-26 18:12:09.170 ,0,1,0.,24.0,0.,24.0,0.,24.0,0.,24.0
1986-01-26 18:12:33.170 ,0,0,0.,24.0,0.,24.0,0.,24.0,0.,24.0
1986-01-26 18:12:57.170 ,1,1,0.,24.0,0.,24.0,0.,24.0,0.,24.0
1986-01-26 18:13:21.170 ,1,0,0.,24.0,0.,24.0,0.,24.0,0.,24.0
1986-01-26 18:13:45.170 ,2,1,0.,24.0,0.,24.0,0.,24.0,0.,24.0
1986-01-26 18:14:09.170 ,2,0,0.,24.0,0.,24.0,0.,24.0,0.,24.0
1986-01-26 18:14:33.170 ,3,1,0.,24.0,0.,24.0,0.,24.0,0.,24.0
1986-01-26 18:14:57.170 ,3,0,0.,24.0,0.,24.0,0.,24.0,0.,24.0
1986-01-26 18:15:21.170 ,4,1,0.,24.0,0.,24.0,0.,24.0,0.,24.0
1986-01-26 18:15:45.170 ,4,0,0.,24.0,0.,24.0,0.,24.0,0.,24.0
1986-01-26 18:16:09.170 ,5,1,0.,24.0,0.,24.0,0.,24.0,0.,24.0
1986-01-26 18:16:33.170 ,5,0,0.,24.0,0.,24.0,0.,24.0,0.,24.0
1986-01-26 18:16:57.170 ,6,1,0.,24.0,0.,24.0,0.,24.0,0.,24.0
1986-01-26 18:17:21.170 ,6,0,0.,24.0,0.,24.0,0.,24.0,0.,24.0
1986-01-26 18:17:45.170 ,7,1,0.,24.0,0.,24.0,0.,24.0,0.,24.0
1986-01-26 18:18:09.170 ,7,0,0.,24.0,0.,24.0,0.,24.0,0.,24.0
1986-01-26 18:18:33.170 ,7,1,0.,24.0,0.,24.0,0.,24.0,0.,24.0
1986-01-26 18:18:57.170 ,7,0,0.,24.0,0.,24.0,0.,24.0,0.,24.0
1986-01-26 18:19:21.170 ,6,1,0.,24.0,0.,24.0,0.,24.0,0.,24.0
1986-01-26 18:19:45.170 ,6,0,0.,24.0,0.,24.0,0.,24.0,0.,24.0
1986-01-26 18:20:09.170 ,5,1,0.,24.0,0.,24.0,0.,24.0,0.,24.0
1986-01-26 18:20:33.170 ,5,0,0.,24.0,0.,24.0,0.,24.0,0.,24.0
1986-01-26 18:20:57.170 ,4,1,0.,24.0,0.,24.0,0.,24.0,0.,24.0
1986-01-26 18:21:21.170 ,4,0,0.,24.0,0.,24.0,0.,24.0,0.,24.0
1986-01-26 18:21:45.170 ,3,1,0.,24.0,0.,24.0,0.,24.0,0.,24.0
1986-01-26 18:22:09.170 ,3,0,0.,24.0,0.,24.0,0.,24.0,0.,24.0
1986-01-26 18:22:33.170 ,2,1,0.,24.0,0.,24.0,0.,24.0,0.,24.0
1986-01-26 18:22:57.170 ,2,0,0.,24.0,0.,24.0,0.,24.0,0.,24.0
1986-01-26 18:23:21.170 ,1,1,0.,24.0,0.,24.0,0.,24.0,0.,24.0
1986-01-26 18:23:45.170 ,1,0,0.,24.0,0.,24.0,0.,24.0,0.,24.0
1986-01-26 18:24:09.170 ,0,1,0.,24.0,0.,24.0,0.,24.0,0.,24.0
1986-01-26 18:24:33.170 ,0,0,0.,24.0,0.,24.0,0.,24.0,0.,24.0
1986-01-26 18:24:57.170 ,0,1,0.,24.0,0.,24.0,0.,24.0,0.,24.0
1986-01-26 18:25:21.170 ,0,0,0.,24.0,0.,24.0,0.,24.0,0.,24.0
1986-01-26 18:25:45.170 ,1,1,0.,24.0,0.,24.0,0.,24.0,0.,24.0
1986-01-26 18:26:09.170 ,1,0,0.,24.0,0.,24.0,0.,24.0,0.,24.0
1986-01-26 18:26:33.170 ,2,1,0.,24.0,0.,24.0,0.,24.0,0.,24.0
1986-01-26 18:26:57.170 ,2,0,0.,24.0,0.,24.0,0.,24.0,0.,24.0
1986-01-26 18:27:21.170 ,3,1,0.,24.0,0.,24.0,0.,24.0,0.,24.0
1986-01-26 18:27:45.170 ,3,0,0.,24.0,0.,24.0,0.,24.0,0.,24.0
1986-01-26 18:28:09.170 ,4,1,0.,24.0,0.,24.0,0.,24.0,0.,24.0
1986-01-26 18:28:33.170 ,4,0,0.,24.0,0.,24.0,0.,24.0,0.,24.0
1986-01-26 18:28:57.170 ,5,1,0.,24.0,0.,24.0,0.,24.0,0.,24.0
1986-01-26 18:29:21.170 ,5,0,0.,24.0,0.,24.0,0.,24.0,0.,24.0
1986-01-26 18:29:45.170 ,6,1,0.,24.0,0.,24.0,0.,24.0,0.,24.0
1986-01-26 18:30:09.170 ,6,0,0.,24.0,0.,24.0,0.,24.0,0.,24.0
1986-01-26 18:30:33.170 ,7,1,0.,24.0,0.,24.0,0.,24.0,0.,24.0
1986-01-26 18:30:57.170 ,7,0,0.,24.0,0.,24.0,0.,24.0,0.,24.0
1986-01-26 18:31:21.170 ,7,1,0.,24.0,0.,24.0,0.,24.0,0.,24.0
1986-01-26 18:31:45.170 ,7,0,0.,24.0,0.,24.0,0.,24.0,0.,24.0
1986-01-26 18:32:09.170 ,6,1,0.,24.0,0.,24.0,0.,24.0,0.,24.0
1986-01-26 18:32:33.170 ,6,0,0.,24.0,0.,24.0,0.,24.0,0.,24.0
1986-01-26 18:32:57.170 ,5,1,0.,24.0,0.,24.0,0.,24.0,0.,24.0
1986-01-26 18:33:21.170 ,5,0,0.,24.0,0.,24.0,0.,24.0,0.,24.0
1986-01-26 18:33:45.170 ,4,1,0.,24.0,0.,24.0,0.,24.0,0.,24.0
1986-01-26 18:34:09.170 ,4,0,0.,24.0,0.,24.0,0.,24.0,0.,24.0
1986-01-26 18:34:33.170 ,3,1,0.,24.0,0.,24.0,0.,24.0,0.,24.0
1986-01-26 18:34:57.170 ,3,0,0.,24.0,0.,24.0,0.,24.0,0.,24.0
1986-01-26 18:35:21.170 ,2,1,0.,24.0,0.,24.0,0.,24.0,0.,24.0
1986-01-26 18:35:45.170 ,2,0,0.,24.0,0.,24.0,0.,24.0,0.,24.0
1986-01-26 18:36:09.170 ,1,1,0.,24.0,0.,24.0,0.,24.0,0.,24.0
1986-01-26 18:36:33.170 ,1,0,0.,24.0,0.,24.0,0.,24.0,0.,24.0
1986-01-26 18:36:57.170 ,0,1,0.,24.0,0.,24.0,0.,24.0,0.,24.0
1986-01-26 18:37:21.170 ,0,0,0.,24.0,0.,24.0,0.,24.0,0.,24.0
1986-01-26 18:37:45.170 ,0,1,0.,24.0,0.,24.0,0.,24.0,0.,24.0
1986-01-26 18:38:09.170 ,0,0,0.,24.0,0.,24.0,0.,24.0,0.,24.0
1986-01-26 18:38:33.170 ,1,1,0.,24.0,0.,24.0,0.,24.0,0.,24.0
1986-01-26 18:38:57.170 ,1,0,0.,24.0,0.,24.0,0.,24.0,0.,24.0
1986-01-26 18:39:21.170 ,2,1,0.,24.0,0.,24.0,0.,24.0,0.,24.0
1986-01-26 18:39:45.170 ,2,0,0.,24.0,0.,24.0,0.,24.0,0.,24.0
1986-01-26 18:40:09.170 ,3,1,0.,24.0,0.,24.0,0.,24.0,0.,24.0
1986-01-26 18:40:33.170 ,3,0,0.,24.0,0.,24.0,0.,24.0,0.,24.0
1986-01-26 18:40:57.170 ,4,1,0.,24.0,0.,24.0,0.,24.0,0.,24.0
1986-01-26 18:41:21.170 ,4,0,0.,24.0,0.,24.0,0.,24.0,0.,24.0
1986-01-26 18:41:45.170 ,5,1,0.,24.0,0.,24.0,0.,24.0,0.,24.0
1986-01-26 18:42:09.170 ,5,0,0.,24.0,0.,24.0,0.,24.0,0.,24.0
1986-01-26 18:42:33.170 ,6,1,0.,24.0,0.,24.0,0.,24.0,0.,24.0
1986-01-26 18:42:57.170 ,6,0,0.,24.0,0.,24.0,0.,24.0,0.,24.0
1986-01-26 18:43:21.170 ,7,1,0.,24.0,0.,24.0,0.,24.0,0.,24.0
1986-01-26 18:43:45.170 ,7,0,0.,24.0,0.,24.0,0.,24.0,0.,24.0
1986-01-26 18:44:09.170 ,7,1,0.,24.0,0.,24.0,0.,24.0,0.,24.0
1986-01-26 18:44:33.170 ,7,0,0.,24.0,0.,24.0,0.,24.0,0.,24.0
1986-01-26 18:44:57.170 ,6,1,0.,24.0,0.,24.0,0.,24.0,0.,24.0
1986-01-26 18:45:21.170 ,6,0,0.,24.0,0.,24.0,0.,24.0,0.,24.0
1986-01-26 18:45:45.170 ,5,1,0.,24.0,0.,24.0,0.,24.0,0.,24.0
1986-01-26 18:46:09.170 ,5,0,0.,24.0,0.,24.0,0.,24.0,0.,24.0
1986-01-26 18:46:33.170 ,4,1,0.,24.0,0.,24.0,0.,24.0,0.,24.0
1986-01-26 18:46:57.170 ,4,0,0.,24.0,0.,24.0,0.,24.0,0.,24.0
1986-01-26 18:47:21.170 ,3,1,0.,24.0,0.,24.0,0.,24.0,0.,24.0
1986-01-26 18:47:45.170 ,3,0,0.,24.0,0.,24.0,0.,24.0,0.,24.0
1986-01-26 18:48:09.170 ,2,1,0.,24.0,0.,24.0,0.,24.0,0.,24.0
1986-01-26 18:48:33.170 ,2,0,0.,24.0,0.,24.0,0.,24.0,0.,24.0
1986-01-26 18:48:57.170 ,1,1,0.,24.0,0.,24.0,0.,24.0,0.,24.0
1986-01-26 18:49:21.170 ,1,0,0.,24.0,0.,24.0,0.,24.0,0.,24.0
1986-01-26 18:49:45.170 ,0,1,0.,24.0,0.,24.0,0.,24.0,0.,24.0
1986-01-26 18:50:09.170 ,0,0,0.,24.0,0.,24.0,0.,24.0,0.,24.0
1986-01-26 18:50:33.170 ,0,1,0.,24.0,0.,24.0,0.,24.0,0.,24.0
1986-01-26 18:50:57.170 ,0,0,0.,24.0,0.,24.0,0.,24.0,0.,24.0
1986-01-26 18:51:21.170 ,1,1,0.,24.0,0.,24.0,0.,24.0,0.,24.0
1986-01-26 18:51:45.170 ,1,0,0.,24.0,0.,24.0,0.,24.0,0.,24.0
1986-01-26 18:52:09.170 ,2,1,0.,24.0,0.,24.0,0.,24.0,0.,24.0
1986-01-26 18:52:33.170 ,2,0,0.,24.0,0.,24.0,0.,24.0,0.,24.0
1986-01-26 18:52:57.170 ,3,1,0.,24.0,0.,24.0,0.,24.0,0.,24.0
1986-01-26 18:53:21.170 ,3,0,0.,24.0,0.,24.0,0.,24.0,0.,24.0
1986-01-26 18:53:45.170 ,4,1,0.,24.0,0.,24.0,0.,24.0,0.,24.0
1986-01-26 18:54:09.170 ,4,0,0.,24.0,0.,24.0,0.,24.0,0.,24.0
1986-01-26 18:54:33.170 ,5,1,0.,24.0,0.,24.0,0.,24.0,0.,24.0
1986-01-26 18:54:57.170 ,5,0,0.,24.0,0.,24.0,0.,24.0,0.,24.0
1986-01-26 18:55:21.170 ,6,1,0.,24.0,0.,24.0,0.,24.0,0.,24.0
1986-01-26 18:55:45.170 ,6,0,0.,24.0,0.,24.0,0.,24.0,0.,24.0
1986-01-26 18:56:09.170 ,7,1,0.,24.0,0.,24.0,0.,24.0,0.,24.0
1986-01-26 18:56:33.170 ,7,0,0.,24.0,0.,24.0,0.,24.0,0.,24.0
1986-01-26 18:56:57.170 ,7,1,0.,24.0,0.,24.0,0.,24.0,0.,24.0
1986-01-26 18:57:21.170 ,7,0,0.,24.0,0.,24.0,0.,24.0,0.,24.0
1986-01-26 18:57:45.170 ,6,1,0.,24.0,0.,24.0,0.,24.0,0.,24.0
1986-01-26 18:58:09.170 ,6,0,0.,24.0,0.,24.0,0.,24.0,0.,24.0
1986-01-26 18:58:33.170 ,5,1,0.,24.0,0.,24.0,0.,24.0,0.,24.0
1986-01-26 18:58:57.170 ,5,0,0.,24.0,0.,24.0,0.,24.0,0.,24.0
1986-01-26 18:59:21.170 ,4,1,0.,24.0,0.,24.0,0.,24.0,0.,24.0
1986-01-26 18:59:45.170 ,4,0,0.,24.0,0.,24.0,0.,24.0,0.,24.0
1986-01-26 19:00:09.170 ,3,1,0.,24.0,0.,24.0,0.,24.0,0.,24.0
1986-01-26 19:00:33.170 ,3,0,0.,24.0,0.,24.0,0.,24.0,0.,24.0
1986-01-26 19:00:57.170 ,2,1,0.,24.0,0.,24.0,0.,24.0,0.,24.0
1986-01-26 19:01:21.170 ,2,0,0.,24.0,0.,24.0,0.,24.0,0.,24.0
1986-01-26 19:01:45.170 ,1,1,0.,24.0,0.,24.0,0.,24.0,0.,24.0
1986-01-26 19:02:09.170 ,1,0,0.,24.0,0.,24.0,0.,24.0,0.,24.0
1986-01-26 19:02:33.170 ,0,1,0.,24.0,0.,24.0,0.,24.0,0.,24.0
1986-01-26 19:02:57.170 ,0,0,0.,24.0,0.,24.0,0.,24.0,0.,24.0
1986-01-26 19:03:21.170 ,0,1,0.,24.0,0.,24.0,0.,24.0,0.,24.0
1986-01-26 19:03:45.170 ,0,0,0.,24.0,0.,24.0,0.,24.0,0.,24.0
1986-01-26 19:04:09.170 ,1,1,0.,24.0,0.,24.0,0.,24.0,0.,24.0
1986-01-26 19:04:33.170 ,1,0,0.,24.0,0.,24.0,0.,24.0,0.,24.0
1986-01-26 19:04:57.170 ,2,1,0.,24.0,0.,24.0,0.,24.0,0.,24.0
1986-01-26 19:05:21.170 ,2,0,0.,24.0,0.,24.0,0.,24.0,0.,24.0
1986-01-26 19:05:45.170 ,3,1,0.,24.0,0.,24.0,0.,24.0,0.,24.0
1986-01-26 19:06:09.170 ,3,0,0.,24.0,0.,24.0,0.,24.0,0.,24.0
1986-01-26 19:06:33.170 ,4,1,0.,24.0,0.,24.0,0.,24.0,0.,24.0
1986-01-26 19:06:57.170 ,4,0,0.,24.0,0.,24.0,0.,24.0,0.,24.0
1986-01-26 19:07:21.170 ,5,1,0.,24.0,0.,24.0,0.,24.0,0.,24.0
1986-01-26 19:07:45.170 ,5,0,0.,24.0,0.,24.0,0.,24.0,0.,24.0
1986-01-26 19:08:09.170 ,6,1,0.,24.0,0.,24.0,0.,24.0,0.,24.0
1986-01-26 19:08:33.170 ,6,0,0.,24.0,0.,24.0,0.,24.0,0.,24.0
1986-01-26 19:08:57.170 ,7,1,0.,24.0,0.,24.0,0.,24.0,0.,24.0
1986-01-26 19:09:21.170 ,7,0,0.,24.0,0.,24.0,0.,24.0,0.,24.0
1986-01-26 19:09:45.170 ,7,1,0.,24.0,0.,24.0,0.,24.0,0.,24.0
1986-01-26 19:10:09.170 ,7,0,0.,24.0,0.,24.0,0.,24.0,0.,24.0
1986-01-26 19:10:33.170 ,6,1,0.,24.0,0.,24.0,0.,24.0,0.,24.0
1986-01-26 19:10:57.170 ,6,0,0.,24.0,0.,24.0,0.,24.0,0.,24.0
1986-01-26 19:11:21.170 ,5,1,0.,24.0,0.,24.0,0.,24.0,0.,24.0
1986-01-26 19:11:45.170 ,5,0,0.,24.0,0.,24.0,0.,24.0,0.,24.0
1986-01-26 19:12:09.170 ,4,1,0.,24.0,0.,24.0,0.,24.0,0.,24.0
1986-01-26 19:12:33.170 ,4,0,0.,24.0,0.,24.0,0.,24.0,0.,24.0
1986-01-26 19:12:57.170 ,3,1,0.,24.0,0.,24.0,0.,24.0,0.,24.0
1986-01-26 19:13:21.170 ,3,0,0.,24.0,0.,24.0,0.,24.0,0.,24.0
1986-01-26 19:13:45.170 ,2,1,0.,24.0,0.,24.0,0.,24.0,0.,24.0
1986-01-26 19:14:09.170 ,2,0,0.,24.0,0.,24.0,0.,24.0,0.,24.0
1986-01-26 19:14:33.170 ,1,1,0.,24.0,0.,24.0,0.,24.0,0.,24.0
1986-01-26 19:14:57.170 ,1,0,0.,24.0,0.,24.0,0.,24.0,0.,24.0
1986-01-26 19:15:21.170 ,0,1,0.,24.0,0.,24.0,0.,24.0,0.,24.0
1986-01-26 19:15:45.170 ,0,0,0.,24.0,0.,24.0,0.,24.0,0.,24.0
1986-01-26 19:16:09.170 ,0,1,0.,24.0,0.,24.0,0.,24.0,0.,24.0
1986-01-26 19:16:33.170 ,0,0,0.,24.0,0.,24.0,0.,24.0,0.,24.0
1986-01-26 19:16:57.170 ,1,1,0.,24.0,0.,24.0,0.,24.0,0.,24.0
1986-01-26 19:17:21.170 ,1,0,0.,24.0,0.,24.0,0.,24.0,0.,24.0
1986-01-26 19:17:45.170 ,2,1,0.,24.0,0.,24.0,0.,24.0,0.,24.0
1986-01-26 19:18:09.170 ,2,0,0.,24.0,0.,24.0,0.,24.0,0.,24.0
1986-01-26 19:18:33.170 ,3,1,0.,24.0,0.,24.0,0.,24.0,0.,24.0
1986-01-26 19:18:57.170 ,3,0,0.,24.0,0.,24.0,0.,24.0,0.,24.0
1986-01-26 19:19:21.170 ,4,1,0.,24.0,0.,24.0,0.,24.0,0.,24.0
1986-01-26 19:19:45.170 ,4,0,0.,24.0,0.,24.0,0.,24.0,0.,24.0
1986-01-26 19:20:09.170 ,5,1,0.,24.0,0.,24.0,0.,24.0,0.,24.0
1986-01-26 19:20:33.170 ,5,0,0.,24.0,0.,24.0,0.,24.0,0.,24.0
1986-01-26 19:20:57.170 ,6,1,0.,24.0,0.,24.0,0.,24.0,0.,24.0
1986-01-26 19:21:21.170 ,6,0,0.,24.0,0.,24.0,0.,24.0,0.,24.0
1986-01-26 19:21:45.170 ,7,1,0.,24.0,0.,24.0,0.,24.0,0.,24.0
1986-01-26 19:22:09.170 ,7,0,0.,24.0,0.,24.0,0.,24.0,0.,24.0
1986-01-26 19:22:33.170 ,7,1,0.,24.0,0.,24.0,0.,24.0,0.,24.0
1986-01-26 19:22:57.170 ,7,0,0.,24.0,0.,24.0,0.,24.0,0.,24.0
1986-01-26 19:23:21.170 ,6,1,0.,24.0,0.,24.0,0.,24.0,0.,24.0
1986-01-26 19:23:45.170 ,6,0,0.,24.0,0.,24.0,0.,24.0,0.,24.0
1986-01-26 19:24:09.170 ,5,1,0.,24.0,0.,24.0,0.,24.0,0.,24.0
1986-01-26 19:24:33.170 ,5,0,0.,24.0,0.,24.0,0.,24.0,0.,24.0
1986-01-26 19:24:57.170 ,4,1,0.,24.0,0.,24.0,0.,24.0,0.,24.0
1986-01-26 19:25:21.170 ,4,0,0.,24.0,0.,24.0,0.,24.0,0.,24.0
1986-01-26 19:25:45.170 ,3,1,0.,24.0,0.,24.0,0.,24.0,0.,24.0
1986-01-26 19:26:09.170 ,3,0,0.,24.0,0.,24.0,0.,24.0,0.,24.0
1986-01-26 19:26:33.170 ,2,1,0.,24.0,0.,24.0,0.,24.0,0.,24.0
1986-01-26 19:26:57.170 ,2,0,0.,24.0,0.,24.0,0.,24.0,0.,24.0
1986-01-26 19:27:21.170 ,1,1,0.,24.0,0.,24.0,0.,24.0,0.,24.0
1986-01-26 19:27:45.170 ,1,0,0.,24.0,0.,24.0,0.,24.0,0.,24.0
1986-01-26 19:28:09.170 ,0,1,0.,24.0,0.,24.0,0.,24.0,0.,24.0
1986-01-26 19:28:33.170 ,0,0,0.,24.0,0.,24.0,0.,24.0,0.,24.0
1986-01-26 19:28:57.170 ,0,1,0.,24.0,0.,24.0,0.,24.0,0.,24.0
1986-01-26 19:29:21.170 ,0,0,0.,24.0,0.,24.0,0.,24.0,0.,24.0
1986-01-26 19:29:45.170 ,1,1,0.,24.0,0.,24.0,0.,24.0,0.,24.0
1986-01-26 19:30:09.170 ,1,0,0.,24.0,0.,24.0,0.,24.0,0.,24.0
1986-01-26 19:30:33.170 ,2,1,0.,24.0,0.,24.0,0.,24.0,0.,24.0
1986-01-26 19:30:57.170 ,2,0,0.,24.0,0.,24.0,0.,24.0,0.,24.0
1986-01-26 19:31:21.170 ,3,1,0.,24.0,0.,24.0,0.,24.0,0.,24.0
1986-01-26 19:31:45.170 ,3,0,0.,24.0,0.,24.0,0.,24.0,0.,24.0
1986-01-26 19:32:09.170 ,4,1,0.,24.0,0.,24.0,0.,24.0,0.,24.0
1986-01-26 19:32:33.170 ,4,0,0.,24.0,0.,24.0,0.,24.0,0.,24.0
1986-01-26 19:32:57.170 ,5,1,0.,24.0,0.,24.0,0.,24.0,0.,24.0
1986-01-26 19:33:21.170 ,5,0,0.,24.0,0.,24.0,0.,24.0,0.,24.0
1986-01-26 19:33:45.170 ,6,1,0.,24.0,0.,24.0,0.,24.0,0.,24.0
1986-01-26 19:34:09.170 ,6,0,0.,24.0,0.,24.0,0.,24.0,0.,24.0
1986-01-26 19:34:33.160 ,7,1,0.,24.0,0.,24.0,0.,24.0,0.,24.0
1986-01-26 19:34:57.160 ,7,0,0.,24.0,0.,24.0,0.,24.0,0.,24.0
1986-01-26 19:35:21.160 ,7,1,0.,24.0,0.,24.0,0.,24.0,0.,24.0
1986-01-26 19:35:45.160 ,7,0,0.,24.0,0.,24.0,0.,24.0,0.,24.0
1986-01-26 19:36:09.160 ,6,1,0.,24.0,0.,24.0,0.,24.0,0.,24.0
1986-01-26 19:36:33.160 ,6,0,0.,24.0,0.,24.0,0.,24.0,0.,24.0
1986-01-26 19:36:57.160 ,5,1,0.,24.0,0.,24.0,0.,24.0,0.,24.0
1986-01-26 19:37:21.160 ,5,0,0.,24.0,0.,24.0,0.,24.0,0.,24.0
1986-01-26 19:37:45.160 ,4,1,0.,24.0,0.,24.0,0.,24.0,0.,24.0
1986-01-26 19:38:09.160 ,4,0,0.,24.0,0.,24.0,0.,24.0,0.,24.0
1986-01-26 19:38:33.160 ,3,1,0.,24.0,0.,24.0,0.,24.0,0.,24.0
1986-01-26 19:38:57.160 ,3,0,0.,24.0,0.,24.0,0.,24.0,0.,24.0
1986-01-26 19:39:21.160 ,2,1,0.,24.0,0.,24.0,0.,24.0,0.,24.0
1986-01-26 19:39:45.160 ,2,0,0.,24.0,0.,24.0,0.,24.0,0.,24.0
1986-01-26 19:40:09.160 ,1,1,0.,24.0,0.,24.0,0.,24.0,0.,24.0
1986-01-26 19:40:33.160 ,1,0,0.,24.0,0.,24.0,0.,24.0,0.,24.0
1986-01-26 19:40:57.160 ,0,1,0.,24.0,0.,24.0,0.,24.0,0.,24.0
1986-01-26 19:41:21.160 ,0,0,0.,24.0,0.,24.0,0.,24.0,0.,24.0
1986-01-26 19:41:45.160 ,0,1,0.,24.0,0.,24.0,0.,24.0,0.,24.0
1986-01-26 19:42:09.160 ,0,0,0.,24.0,0.,24.0,0.,24.0,0.,24.0
1986-01-26 19:42:33.160 ,1,1,0.,24.0,0.,24.0,0.,24.0,0.,24.0
1986-01-26 19:42:57.160 ,1,0,0.,24.0,0.,24.0,0.,24.0,0.,24.0
1986-01-26 19:43:21.160 ,2,1,0.,24.0,0.,24.0,0.,24.0,0.,24.0
1986-01-26 19:43:45.160 ,2,0,0.,24.0,0.,24.0,0.,24.0,0.,24.0
1986-01-26 19:44:09.160 ,3,1,0.,24.0,0.,24.0,0.,24.0,0.,24.0
1986-01-26 19:44:33.160 ,3,0,0.,24.0,0.,24.0,0.,24.0,0.,24.0
1986-01-26 19:44:57.160 ,4,1,0.,24.0,0.,24.0,0.,24.0,0.,24.0
1986-01-26 19:45:21.160 ,4,0,0.,24.0,0.,24.0,0.,24.0,0.,24.0
1986-01-26 19:45:45.160 ,5,1,0.,24.0,0.,24.0,0.,24.0,0.,24.0
1986-01-26 19:46:09.160 ,5,0,0.,24.0,0.,24.0,0.,24.0,0.,24.0
1986-01-26 19:46:33.160 ,6,1,0.,24.0,0.,24.0,0.,24.0,0.,24.0
1986-01-26 19:46:57.160 ,6,0,0.,24.0,0.,24.0,0.,24.0,0.,24.0
1986-01-26 19:47:21.160 ,7,1,0.,24.0,0.,24.0,0.,24.0,0.,24.0
1986-01-26 19:47:45.160 ,7,0,0.,24.0,0.,24.0,0.,24.0,0.,24.0
1986-01-26 19:48:09.160 ,7,1,0.,24.0,0.,24.0,0.,24.0,0.,24.0
1986-01-26 19:48:33.160 ,7,0,0.,24.0,0.,24.0,0.,24.0,0.,24.0
1986-01-26 19:48:57.160 ,6,1,0.,24.0,0.,24.0,0.,24.0,0.,24.0
1986-01-26 19:49:21.160 ,6,0,0.,24.0,0.,24.0,0.,24.0,0.,24.0
1986-01-26 19:49:45.160 ,5,1,0.,24.0,0.,24.0,0.,24.0,0.,24.0
1986-01-26 19:50:09.160 ,5,0,0.,24.0,0.,24.0,0.,24.0,0.,24.0
1986-01-26 19:50:33.160 ,4,1,0.,24.0,0.,24.0,0.,24.0,0.,24.0
1986-01-26 19:50:57.160 ,4,0,0.,24.0,0.,24.0,0.,24.0,0.,24.0
1986-01-26 19:51:21.160 ,3,1,0.,24.0,0.,24.0,0.,24.0,0.,24.0
1986-01-26 19:51:45.160 ,3,0,0.,24.0,0.,24.0,0.,24.0,0.,24.0
1986-01-26 19:52:09.160 ,2,1,0.,24.0,0.,24.0,0.,24.0,0.,24.0
1986-01-26 19:52:33.160 ,2,0,0.,24.0,0.,24.0,0.,24.0,0.,24.0
1986-01-26 19:52:57.160 ,1,1,0.,24.0,0.,24.0,0.,24.0,0.,24.0
1986-01-26 19:53:21.160 ,1,0,0.,24.0,0.,24.0,0.,24.0,0.,24.0
1986-01-26 19:53:45.160 ,0,1,0.,24.0,0.,24.0,0.,24.0,0.,24.0
1986-01-26 19:54:09.160 ,0,0,0.,24.0,0.,24.0,0.,24.0,0.,24.0
1986-01-26 19:54:33.160 ,0,1,0.,24.0,0.,24.0,0.,24.0,0.,24.0
1986-01-26 19:54:57.160 ,0,0,0.,24.0,0.,24.0,0.,24.0,0.,24.0
1986-01-26 19:55:21.160 ,1,1,0.,24.0,0.,24.0,0.,24.0,0.,24.0
1986-01-26 19:55:45.160 ,1,0,0.,24.0,0.,24.0,0.,24.0,0.,24.0
1986-01-26 19:56:09.160 ,2,1,0.,24.0,0.,24.0,0.,24.0,0.,24.0
1986-01-26 19:56:33.160 ,2,0,0.,24.0,0.,24.0,0.,24.0,0.,24.0
1986-01-26 19:56:57.160 ,3,1,0.,24.0,0.,24.0,0.,24.0,0.,24.0
1986-01-26 19:57:21.160 ,3,0,0.,24.0,0.,24.0,0.,24.0,0.,24.0
1986-01-26 19:57:45.160 ,4,1,0.,24.0,0.,24.0,0.,24.0,0.,24.0
1986-01-26 19:58:09.160 ,4,0,0.,24.0,0.,24.0,0.,24.0,0.,24.0
1986-01-26 19:58:33.160 ,5,1,0.,24.0,0.,24.0,0.,24.0,0.,24.0
1986-01-26 19:58:57.160 ,5,0,0.,24.0,0.,24.0,0.,24.0,0.,24.0
1986-01-26 19:59:21.160 ,6,1,0.,24.0,0.,24.0,0.,24.0,0.,24.0
1986-01-26 19:59:45.160 ,6,0,0.,24.0,0.,24.0,0.,24.0,0.,24.0
1986-01-26 20:00:09.160 ,7,1,0.,24.0,0.,24.0,0.,24.0,0.,24.0
1986-01-26 20:00:33.160 ,7,0,0.,24.0,0.,24.0,0.,24.0,0.,24.0
1986-01-26 20:00:57.160 ,7,1,0.,24.0,0.,24.0,0.,24.0,0.,24.0
1986-01-26 20:01:21.160 ,7,0,0.,24.0,0.,24.0,0.,24.0,0.,24.0
1986-01-26 20:01:45.160 ,6,1,0.,24.0,0.,24.0,0.,24.0,0.,24.0
1986-01-26 20:02:09.160 ,6,0,0.,24.0,0.,24.0,0.,24.0,0.,24.0
1986-01-26 20:02:33.160 ,5,1,0.,24.0,0.,24.0,0.,24.0,0.,24.0
1986-01-26 20:02:57.160 ,5,0,0.,24.0,0.,24.0,0.,24.0,0.,24.0
1986-01-26 20:03:21.160 ,4,1,0.,24.0,0.,24.0,0.,24.0,0.,24.0
1986-01-26 20:03:45.160 ,4,0,0.,24.0,0.,24.0,0.,24.0,0.,24.0
1986-01-26 20:04:09.160 ,3,1,0.,24.0,0.,24.0,0.,24.0,0.,24.0
1986-01-26 20:04:33.160 ,3,0,0.,24.0,0.,24.0,0.,24.0,0.,24.0
1986-01-26 20:04:57.160 ,2,1,0.,24.0,0.,24.0,0.,24.0,0.,24.0
1986-01-26 20:05:21.160 ,2,0,0.,24.0,0.,24.0,0.,24.0,0.,24.0
1986-01-26 20:05:45.160 ,1,1,0.,24.0,0.,24.0,0.,24.0,0.,24.0
1986-01-26 20:06:09.160 ,1,0,0.,24.0,0.,24.0,0.,24.0,0.,24.0
1986-01-26 20:06:33.160 ,0,1,0.,24.0,0.,24.0,0.,24.0,0.,24.0
1986-01-26 20:06:57.160 ,0,0,0.,24.0,0.,24.0,0.,24.0,0.,24.0
1986-01-26 20:07:21.160 ,0,1,0.,24.0,0.,24.0,0.,24.0,0.,24.0
1986-01-26 20:07:45.160 ,0,0,0.,24.0,0.,24.0,0.,24.0,0.,24.0
1986-01-26 20:08:09.160 ,1,1,0.,24.0,0.,24.0,0.,24.0,0.,24.0
1986-01-26 20:08:33.160 ,1,0,0.,24.0,0.,24.0,0.,24.0,0.,24.0
1986-01-26 20:08:57.160 ,2,1,0.,24.0,0.,24.0,0.,24.0,0.,24.0
1986-01-26 20:09:21.160 ,2,0,0.,24.0,0.,24.0,0.,24.0,0.,24.0
1986-01-26 20:09:45.160 ,3,1,0.,24.0,0.,24.0,0.,24.0,0.,24.0
1986-01-26 20:10:09.160 ,3,0,0.,24.0,0.,24.0,0.,24.0,0.,24.0
1986-01-26 20:10:33.160 ,4,1,0.,24.0,0.,24.0,0.,24.0,0.,24.0
1986-01-26 20:10:57.160 ,4,0,0.,24.0,0.,24.0,0.,24.0,0.,24.0
1986-01-26 20:11:21.160 ,5,1,0.,24.0,0.,24.0,0.,24.0,0.,24.0
1986-01-26 20:11:45.160 ,5,0,0.,24.0,0.,24.0,0.,24.0,0.,24.0
1986-01-26 20:12:09.160 ,6,1,0.,24.0,0.,24.0,0.,24.0,0.,24.0
1986-01-26 20:12:33.160 ,6,0,0.,24.0,0.,24.0,0.,24.0,0.,24.0
1986-01-26 20:12:57.160 ,7,1,0.,24.0,0.,24.0,0.,24.0,0.,24.0
1986-01-26 20:13:21.160 ,7,0,0.,24.0,0.,24.0,0.,24.0,0.,24.0
1986-01-26 20:13:45.160 ,7,1,0.,24.0,0.,24.0,0.,24.0,0.,24.0
1986-01-26 20:14:09.160 ,7,0,0.,24.0,0.,24.0,0.,24.0,0.,24.0
1986-01-26 20:14:33.160 ,6,1,0.,24.0,0.,24.0,0.,24.0,0.,24.0
1986-01-26 20:14:57.160 ,6,0,0.,24.0,0.,24.0,0.,24.0,0.,24.0
1986-01-26 20:15:21.160 ,5,1,0.,24.0,0.,24.0,0.,24.0,0.,24.0
1986-01-26 20:15:45.160 ,5,0,0.,24.0,0.,24.0,0.,24.0,0.,24.0
1986-01-26 20:16:09.160 ,4,1,0.,24.0,0.,24.0,0.,24.0,0.,24.0
1986-01-26 20:16:33.160 ,4,0,0.,24.0,0.,24.0,0.,24.0,0.,24.0
1986-01-26 20:16:57.160 ,3,1,0.,24.0,0.,24.0,0.,24.0,0.,24.0
1986-01-26 20:17:21.160 ,3,0,0.,24.0,0.,24.0,0.,24.0,0.,24.0
1986-01-26 20:17:45.160 ,2,1,0.,24.0,0.,24.0,0.,24.0,0.,24.0
1986-01-26 20:18:09.160 ,2,0,0.,24.0,0.,24.0,0.,24.0,0.,24.0
1986-01-26 20:18:33.160 ,1,1,0.,24.0,0.,24.0,0.,24.0,0.,24.0
1986-01-26 20:18:57.160 ,1,0,0.,24.0,0.,24.0,0.,24.0,0.,24.0
1986-01-26 20:19:21.160 ,0,1,0.,24.0,0.,24.0,0.,24.0,0.,24.0
1986-01-26 20:19:45.160 ,0,0,0.,24.0,0.,24.0,0.,24.0,0.,24.0
1986-01-26 20:20:09.160 ,0,1,0.,24.0,0.,24.0,0.,24.0,0.,24.0
1986-01-26 20:20:33.160 ,0,0,0.,24.0,0.,24.0,0.,24.0,0.,24.0
1986-01-26 20:20:57.160 ,1,1,0.,24.0,0.,24.0,0.,24.0,0.,24.0
1986-01-26 20:21:21.160 ,1,0,0.,24.0,0.,24.0,0.,24.0,0.,24.0
1986-01-26 20:21:45.160 ,2,1,0.,24.0,0.,24.0,0.,24.0,0.,24.0
1986-01-26 20:22:09.160 ,2,0,0.,24.0,0.,24.0,0.,24.0,0.,24.0
1986-01-26 20:22:33.160 ,3,1,0.,24.0,0.,24.0,0.,24.0,0.,24.0
1986-01-26 20:22:57.160 ,3,0,0.,24.0,0.,24.0,0.,24.0,0.,24.0
1986-01-26 20:23:21.160 ,4,1,0.,24.0,0.,24.0,0.,24.0,0.,24.0
1986-01-26 20:23:45.160 ,4,0,0.,24.0,0.,24.0,0.,24.0,0.,24.0
1986-01-26 20:24:09.160 ,5,1,0.,24.0,0.,24.0,0.,24.0,0.,24.0
1986-01-26 20:24:33.160 ,5,0,0.,24.0,0.,24.0,0.,24.0,0.,24.0
1986-01-26 20:24:57.160 ,6,1,0.,24.0,0.,24.0,0.,24.0,0.,24.0
1986-01-26 20:25:21.160 ,6,0,0.,24.0,0.,24.0,0.,24.0,0.,24.0
1986-01-26 20:25:45.160 ,7,1,0.,24.0,0.,24.0,0.,24.0,0.,24.0
1986-01-26 20:26:09.160 ,7,0,0.,24.0,0.,24.0,0.,24.0,0.,24.0
1986-01-26 20:26:33.160 ,7,1,0.,24.0,0.,24.0,0.,24.0,0.,24.0
1986-01-26 20:26:57.160 ,7,0,0.,24.0,0.,24.0,0.,24.0,0.,24.0
1986-01-26 20:27:21.160 ,6,1,0.,24.0,0.,24.0,0.,24.0,0.,24.0
1986-01-26 20:27:45.160 ,6,0,0.,24.0,0.,24.0,0.,24.0,0.,24.0
1986-01-26 20:28:09.160 ,5,1,0.,24.0,0.,24.0,0.,24.0,0.,24.0
1986-01-26 20:28:33.160 ,5,0,0.,24.0,0.,24.0,0.,24.0,0.,24.0
1986-01-26 20:28:57.160 ,4,1,0.,24.0,0.,24.0,0.,24.0,0.,24.0
1986-01-26 20:29:21.160 ,4,0,0.,24.0,0.,24.0,0.,24.0,0.,24.0
1986-01-26 20:29:45.160 ,3,1,0.,24.0,0.,24.0,0.,24.0,0.,24.0
1986-01-26 20:30:09.160 ,3,0,0.,24.0,0.,24.0,0.,24.0,0.,24.0
1986-01-26 20:30:33.160 ,2,1,0.,24.0,0.,24.0,0.,24.0,0.,24.0
1986-01-26 20:30:57.160 ,2,0,0.,24.0,0.,24.0,0.,24.0,0.,24.0
1986-01-26 20:31:21.160 ,1,1,0.,24.0,0.,24.0,0.,24.0,0.,24.0
1986-01-26 20:31:45.160 ,1,0,0.,24.0,0.,24.0,0.,24.0,0.,24.0
1986-01-26 20:32:09.160 ,0,1,0.,24.0,0.,24.0,0.,24.0,0.,24.0
1986-01-26 20:32:33.160 ,0,0,0.,24.0,0.,24.0,0.,24.0,0.,24.0
1986-01-26 20:32:57.160 ,0,1,0.,24.0,0.,24.0,0.,24.0,0.,24.0
1986-01-26 20:33:21.160 ,0,0,0.,24.0,0.,24.0,0.,24.0,0.,24.0
1986-01-26 20:33:45.160 ,1,1,0.,24.0,0.,24.0,0.,24.0,0.,24.0
1986-01-26 20:34:09.160 ,1,0,0.,24.0,0.,24.0,0.,24.0,0.,24.0
1986-01-26 20:34:33.160 ,2,1,0.,24.0,0.,24.0,0.,24.0,0.,24.0